Latest Weather Observations for Maryborough

IDQ60801

Issued at 5:05 pm EST Monday 1 September 2014 (issued every 30 minutes, with the page automatically refreshed every 10 minutes)

About weather observations | Map of weather stations | Latest weather observations for QLD | Other Formats
Station Details ID: 040126 Name: MARYBOROUGH Lat: -25.52 Lon: 152.72 Height: 10.28 m
Data from the previous 72 hours. | See also: Recent months at Maryborough
Date/Time
EST
Temp
°C
App
Temp
°C
Dew
Point
Rel
Hum
%
Delta-T
°C
Wind Press
QNH
hPa
Press
MSL
hPa
Rain
since 9 am
mm
Dir
 
Spd
km/h
Gust
km/h
Spd
kts
Gust
kts
01/05:00pm 20.8 18.3 11.2 54 5.3 N 15 24 8 13 1016.0 - 0.0
01/04:30pm 22.1 18.7 10.6 48 6.3 N 19 28 10 15 1015.9 - 0.0
01/04:00pm 23.3 20.4 11.0 46 6.8 N 17 22 9 12 1015.6 - 0.0
01/03:30pm 23.4 20.0 9.0 40 7.7 NNE 17 22 9 12 1015.6 - 0.0
01/03:00pm 24.6 21.2 10.5 41 7.8 NNE 19 28 10 15 1015.5 1015.5 0.0
01/02:30pm 24.0 20.9 10.3 42 7.6 NNE 17 28 9 15 1015.9 - 0.0
01/02:00pm 23.6 20.7 11.0 45 7.0 N 17 24 9 13 1016.3 - 0.0
01/01:30pm 25.5 24.1 10.9 40 8.2 N 9 19 5 10 1016.7 - 0.0
01/01:00pm 24.2 22.0 7.8 35 8.7 NNW 9 15 5 8 1017.3 - 0.0
01/12:30pm 24.3 22.4 10.6 42 7.6 N 11 17 6 9 1017.4 - 0.0
01/12:00pm 24.3 23.0 12.6 48 6.7 NNE 11 20 6 11 1017.7 1017.7 0.0
01/11:30am 23.8 23.1 13.1 51 6.2 NW 9 15 5 8 1018.0 - 0.0
01/11:00am 23.3 22.2 13.2 53 5.8 NNW 11 17 6 9 1018.8 - 0.0
01/10:30am 22.5 21.7 14.1 59 4.9 NW 11 19 6 10 1019.7 - 0.0
01/10:00am 21.3 21.3 14.2 64 4.1 NNW 7 13 4 7 1020.0 - 0.0
01/09:30am 20.3 20.5 14.7 70 3.3 NNE 7 9 4 5 1020.1 - 0.0
01/09:00am 19.0 19.2 14.3 74 2.7 S 6 9 3 5 1020.3 1020.3 0.0
01/08:30am 17.6 18.3 13.5 77 2.3 SSW 2 7 1 4 1020.2 - 0.0
01/08:00am 15.5 16.3 12.4 82 1.7 CALM 0 0 0 0 1019.9 - 0.0
01/07:30am 13.7 14.3 11.9 89 1.0 CALM 0 0 0 0 1019.5 - 0.0
01/07:00am 11.7 12.0 10.8 94 0.5 CALM 0 0 0 0 1019.2 - 0.0
01/06:30am 9.7 9.4 8.8 94 0.4 CALM 0 6 0 3 1019.0 - 0.0
01/06:22am 9.4 8.3 8.6 95 0.4 NE 4 6 2 3 1018.8 - 0.0
01/06:00am 9.7 9.5 8.9 95 0.4 CALM 0 7 0 4 1018.8 1018.8 0.0
01/05:30am 10.0 9.9 9.4 96 0.3 CALM 0 0 0 0 1018.8 - 0.0
01/05:01am 9.9 9.7 9.0 94 0.4 CALM 0 0 0 0 1018.4 - 0.0
01/05:00am 9.8 9.6 8.9 94 0.4 CALM 0 0 0 0 1018.4 - 0.0
01/04:40am 10.6 10.7 10.0 96 0.3 CALM 0 0 0 0 1018.3 - 0.0
01/04:30am 10.0 9.8 8.9 93 0.5 CALM 0 0 0 0 1018.3 - 0.0
01/04:20am 10.0 9.8 8.9 93 0.5 CALM 0 0 0 0 1018.3 - 0.0
01/04:00am 9.9 8.8 8.5 91 0.7 NE 4 6 2 3 1018.2 - 0.0
01/03:34am 10.6 9.4 9.7 94 0.5 NE 6 7 3 4 1018.1 - 0.0
01/03:30am 10.8 9.7 9.9 94 0.5 NE 6 7 3 4 1018.0 - 0.0
01/03:18am 10.6 10.6 9.7 94 0.5 CALM 0 6 0 3 1018.0 - 0.0
01/03:00am 10.7 9.6 9.8 94 0.5 NE 6 6 3 3 1018.0 1018.0 0.0
01/02:59am 10.7 9.6 9.9 95 0.4 NE 6 6 3 3 1018.0 - 0.0
01/02:30am 11.0 10.3 10.1 94 0.5 NE 4 7 2 4 1018.2 - 0.0
01/02:07am 11.5 10.6 10.7 95 0.4 NE 6 7 3 4 1018.3 - 0.0
01/02:00am 11.3 10.3 10.4 94 0.5 NE 6 7 3 4 1018.4 - 0.0
01/01:30am 10.7 10.6 9.3 91 0.7 CALM 0 0 0 0 1018.4 - 0.0
01/01:00am 11.3 11.4 10.2 93 0.6 CALM 0 0 0 0 1018.5 - 0.0
01/12:30am 11.3 11.4 10.0 92 0.7 CALM 0 0 0 0 1018.6 - 0.0
01/12:23am 11.7 12.0 10.8 94 0.5 CALM 0 0 0 0 1018.6 - 0.0
01/12:01am 11.4 11.5 10.3 93 0.6 CALM 0 0 0 0 1018.8 - 0.0
01/12:00am 11.5 11.7 10.4 93 0.6 NE 0 0 0 0 1018.8 1018.8 0.0
 
Date/Time
EST
Temp
°C
App
Temp
°C
Dew
Point
Rel
Hum
%
Delta-T
°C
Wind Press
QNH
hPa
Press
MSL
hPa
Rain
since 9 am
mm
Dir
 
Spd
km/h
Gust
km/h
Spd
kts
Gust
kts
31/11:30pm 11.6 10.6 10.2 91 0.7 NE 6 9 3 5 1018.9 - 0.0
31/11:00pm 11.9 12.0 10.0 88 1.0 NE 0 4 0 2 1018.9 - 0.0
31/10:30pm 12.6 11.7 10.7 88 1.0 NE 6 7 3 4 1019.0 - 0.0
31/10:00pm 12.7 12.9 10.6 87 1.1 CALM 0 0 0 0 1018.9 - 0.0
31/09:30pm 12.9 13.1 10.4 85 1.3 CALM 0 0 0 0 1018.7 - 0.0
31/09:00pm 13.1 13.3 10.5 84 1.3 CALM 0 0 0 0 1018.6 1018.6 0.0
31/08:30pm 13.7 13.9 10.7 82 1.6 CALM 0 0 0 0 1018.7 - 0.0
31/08:00pm 14.2 13.4 11.0 81 1.7 NE 6 6 3 3 1018.3 - 0.0
31/07:30pm 14.8 14.4 11.2 79 1.9 NE 4 7 2 4 1018.1 - 0.0
31/07:00pm 15.6 14.3 9.3 66 3.2 NE 6 7 3 4 1017.7 - 0.0
31/06:30pm 17.9 16.3 10.3 61 4.0 NNE 9 11 5 6 1017.1 - 0.0
31/06:00pm 18.6 16.6 10.2 58 4.5 NNE 11 13 6 7 1016.6 1016.6 0.0
31/05:30pm 19.7 17.2 9.6 52 5.4 NNE 13 17 7 9 1016.3 - 0.0
31/05:00pm 21.3 19.1 10.8 51 5.8 NE 13 20 7 11 1016.1 - 0.0
31/04:30pm 22.4 19.3 10.2 46 6.7 NE 17 22 9 12 1015.7 - 0.0
31/04:00pm 23.7 21.1 9.3 40 7.8 NNE 13 20 7 11 1015.3 - 0.0
31/03:30pm 23.6 21.7 10.6 44 7.2 NE 11 20 6 11 1015.2 - 0.0
31/03:00pm 24.1 22.0 11.1 44 7.3 NE 13 20 7 11 1015.2 1015.2 0.0
31/02:30pm 23.4 22.3 10.8 45 7.0 NNW 7 15 4 8 1015.4 - 0.0
31/02:00pm 24.3 22.5 7.9 35 8.7 NNW 7 13 4 7 1015.5 - 0.0
31/01:30pm 24.5 22.7 8.0 35 8.8 NE 7 15 4 8 1015.7 - 0.0
31/01:00pm 24.5 22.9 8.0 35 8.8 WSW 6 13 3 7 1016.2 - 0.0
31/12:30pm 23.8 21.6 7.8 36 8.4 E 9 13 5 7 1016.7 - 0.0
31/12:00pm 23.2 21.4 8.1 38 8.0 E 7 11 4 6 1017.2 1017.2 0.0
31/11:30am 23.1 21.4 9.8 43 7.2 ESE 9 13 5 7 1017.8 - 0.0
31/11:00am 22.2 20.8 9.0 43 7.0 S 6 9 3 5 1018.1 - 0.0
31/10:30am 21.7 21.1 12.3 55 5.3 S 7 11 4 6 1018.4 - 0.0
31/10:00am 20.6 19.8 11.8 57 4.9 W 7 13 4 7 1018.9 - 0.0
31/09:30am 19.5 19.1 12.5 64 3.9 WSW 6 11 3 6 1019.2 - 0.0
31/09:00am 18.0 18.1 11.6 66 3.5 W 2 7 1 4 1019.3 1019.3 0.0
31/08:30am 15.9 16.3 11.1 73 2.6 CALM 0 6 0 3 1019.4 - 0.0
31/08:00am 13.6 12.3 10.0 79 1.9 SSW 7 9 4 5 1019.4 - 0.0
31/07:30am 12.3 11.0 9.9 85 1.2 S 7 11 4 6 1019.2 - 0.0
31/07:00am 10.7 9.4 9.9 95 0.4 ESE 7 9 4 5 1018.9 - 0.0
31/06:30am 8.8 7.9 7.9 94 0.4 SW 2 6 1 3 1018.6 - 0.0
31/06:00am 9.1 8.0 8.3 95 0.4 NW 4 7 2 4 1018.4 1018.4 0.0
31/05:30am 9.0 8.6 8.1 94 0.4 CALM 0 0 0 0 1018.2 - 0.0
31/05:00am 8.7 6.9 7.9 95 0.4 NW 7 7 4 4 1018.0 - 0.0
31/04:42am 8.9 8.5 8.1 95 0.4 CALM 0 0 0 0 1017.8 - 0.0
31/04:30am 8.6 8.1 7.7 94 0.4 CALM 0 0 0 0 1017.8 - 0.0
31/04:25am 8.8 8.3 8.0 95 0.4 CALM 0 0 0 0 1017.8 - 0.0
31/04:19am 9.1 8.8 8.5 96 0.3 CALM 0 0 0 0 1017.8 - 0.0
31/04:05am 8.8 8.3 7.9 94 0.4 CALM 0 0 0 0 1017.8 - 0.0
31/04:00am 9.0 8.6 8.1 94 0.4 CALM 0 0 0 0 1017.8 - 0.0
31/03:30am 9.1 8.7 8.2 94 0.4 CALM 0 0 0 0 1017.8 - 0.0
31/03:00am 9.0 8.6 8.1 94 0.4 CALM 0 0 0 0 1017.9 1017.9 0.0
31/02:52am 9.3 8.9 8.4 94 0.4 CALM 0 0 0 0 1018.0 - 0.0
31/02:30am 9.5 9.2 8.6 94 0.4 CALM 0 0 0 0 1018.1 - 0.0
31/02:00am 9.8 9.6 9.0 95 0.4 CALM 0 0 0 0 1018.2 - 0.0
31/01:49am 9.8 9.5 8.7 93 0.5 CALM 0 0 0 0 1018.2 - 0.0
31/01:30am 10.2 10.1 9.3 94 0.4 CALM 0 0 0 0 1018.2 - 0.0
31/01:00am 10.7 10.7 9.8 94 0.5 CALM 0 0 0 0 1018.3 - 0.0
31/12:30am 11.0 11.0 9.9 93 0.6 CALM 0 0 0 0 1018.8 - 0.0
31/12:08am 10.9 10.9 9.8 93 0.6 CALM 0 0 0 0 1019.0 - 0.0
31/12:00am 10.6 10.5 9.5 93 0.5 CALM 0 0 0 0 1019.0 1019.0 0.0
 
Date/Time
EST
Temp
°C
App
Temp
°C
Dew
Point
Rel
Hum
%
Delta-T
°C
Wind Press
QNH
hPa
Press
MSL
hPa
Rain
since 9 am
mm
Dir
 
Spd
km/h
Gust
km/h
Spd
kts
Gust
kts
30/11:30pm 10.5 10.3 8.9 90 0.8 CALM 0 0 0 0 1019.1 - 0.0
30/11:24pm 10.7 10.5 9.1 90 0.8 CALM 0 0 0 0 1019.2 - 0.0
30/11:00pm 11.1 11.1 9.9 92 0.6 CALM 0 0 0 0 1019.2 - 0.0
30/10:30pm 11.2 11.0 9.1 87 1.0 CALM 0 0 0 0 1019.2 - 0.0
30/10:00pm 11.8 10.7 10.0 89 0.9 NW 6 9 3 5 1019.3 - 0.0
30/09:30pm 11.9 10.3 10.3 90 0.8 NW 9 9 5 5 1019.3 - 0.0
30/09:00pm 12.5 12.5 9.9 84 1.3 CALM 0 0 0 0 1019.1 1019.1 0.0
30/08:30pm 12.8 12.9 10.2 84 1.3 CALM 0 0 0 0 1019.1 - 0.0
30/08:00pm 13.0 12.9 9.6 80 1.7 CALM 0 0 0 0 1018.7 - 0.0
30/07:30pm 13.7 12.5 9.7 77 2.1 ENE 6 7 3 4 1018.3 - 0.0
30/07:00pm 14.3 13.1 9.5 73 2.5 ENE 6 6 3 3 1017.9 - 0.0
30/06:30pm 16.9 15.3 10.3 65 3.5 ENE 9 11 5 6 1017.5 - 0.0
30/06:00pm 17.4 15.7 9.8 61 4.0 ENE 9 11 5 6 1017.2 1017.2 0.0
30/05:30pm 18.8 17.3 10.6 59 4.4 NE 9 13 5 7 1016.7 - 0.0
30/05:00pm 20.4 18.0 10.2 52 5.5 NNE 13 17 7 9 1016.4 - 0.0
30/04:30pm 21.4 19.3 9.9 48 6.2 NNE 11 17 6 9 1016.2 - 0.0
30/04:00pm 22.5 19.5 9.3 43 7.1 ESE 15 22 8 12 1015.9 - 0.0
30/03:30pm 23.9 21.6 5.8 31 9.2 E 7 13 4 7 1015.7 - 0.0
30/03:00pm 24.3 20.9 6.1 31 9.3 ESE 13 20 7 11 1015.8 1015.8 0.0
30/02:30pm 24.0 21.7 5.8 31 9.3 SSE 7 13 4 7 1016.0 - 0.0
30/02:00pm 23.7 20.2 5.6 31 9.2 WNW 13 24 7 13 1016.2 - 0.0
30/01:30pm 23.8 21.2 6.1 32 9.0 W 9 20 5 11 1016.6 - 0.0
30/01:00pm 22.6 18.1 4.2 30 9.0 WNW 17 24 9 13 1016.9 - 0.0
30/12:30pm 22.8 19.3 5.3 32 8.7 SW 13 20 7 11 1017.4 - 0.0
30/12:00pm 22.1 18.8 4.6 32 8.6 W 11 20 6 11 1018.0 1018.0 0.0
30/11:30am 21.8 18.4 5.7 35 8.1 WSW 13 22 7 12 1018.6 - 0.0
30/11:00am 21.5 18.3 5.0 34 8.1 NW 11 22 6 12 1019.1 - 0.0
30/10:30am 21.0 18.5 5.0 35 7.9 W 7 20 4 11 1019.7 - 0.0
30/10:00am 20.1 17.2 6.4 41 6.9 WSW 11 17 6 9 1020.0 - 0.0
30/09:30am 18.9 16.7 10.7 59 4.4 W 13 22 7 12 1020.2 - 0.0
30/09:00am 17.8 16.1 11.1 65 3.6 W 11 15 6 8 1020.5 1020.5 0.0
30/08:30am 16.5 15.0 11.9 74 2.5 W 11 15 6 8 1020.6 - 0.0
30/08:00am 14.6 13.9 11.9 84 1.5 WSW 7 9 4 5 1020.7 - 0.0
30/07:30am 12.5 12.1 11.2 92 0.7 WSW 4 9 2 5 1020.8 - 0.0
30/07:00am 10.4 10.3 9.6 95 0.4 CALM 0 2 0 1 1020.6 - 0.0
30/06:30am 8.8 8.4 8.2 96 0.3 CALM 0 0 0 0 1020.4 - 0.0
30/06:00am 8.3 7.7 7.5 95 0.4 CALM 0 0 0 0 1020.2 1020.2 0.0
30/05:35am 8.4 7.8 7.6 95 0.4 CALM 0 0 0 0 1019.9 - 0.0
30/05:30am 8.8 8.4 8.2 96 0.3 CALM 0 0 0 0 1019.9 - 0.0
30/05:00am 9.2 8.8 8.4 95 0.4 CALM 0 0 0 0 1019.6 - 0.0
30/04:50am 8.8 8.3 7.9 94 0.4 CALM 0 0 0 0 1019.6 - 0.0
30/04:30am 9.3 9.0 8.5 95 0.4 CALM 0 0 0 0 1019.5 - 0.0
30/04:00am 9.0 8.5 7.9 93 0.5 CALM 0 0 0 0 1019.5 - 0.0
30/03:43am 9.7 9.4 8.8 94 0.4 CALM 0 0 0 0 1019.4 - 0.0
30/03:30am 9.9 9.7 9.1 95 0.4 CALM 0 0 0 0 1019.4 - 0.0
30/03:06am 10.2 10.0 9.1 93 0.5 CALM 0 0 0 0 1019.5 - 0.0
30/03:00am 10.2 10.0 9.0 92 0.6 CALM 0 0 0 0 1019.5 1019.5 0.0
30/02:39am 10.6 10.4 9.2 91 0.7 CALM 0 0 0 0 1019.6 - 0.0
30/02:30am 10.8 10.6 9.2 90 0.8 CALM 0 0 0 0 1019.7 - 0.0
30/02:00am 11.6 10.8 9.5 87 1.1 WSW 4 7 2 4 1019.8 - 0.0
30/01:30am 12.3 10.8 10.4 88 1.0 WSW 9 11 5 6 1019.8 - 0.0
30/01:00am 12.6 11.1 10.7 88 1.0 SW 9 11 5 6 1020.0 - 0.0
30/12:30am 12.8 10.7 11.0 89 0.9 SW 13 17 7 9 1020.1 - 0.0
30/12:00am 11.5 10.8 10.1 91 0.7 WSW 4 7 2 4 1020.2 1020.2 0.0
 
Date/Time
EST
Temp
°C
App
Temp
°C
Dew
Point
Rel
Hum
%
Delta-T
°C
Wind Press
QNH
hPa
Press
MSL
hPa
Rain
since 9 am
mm
Dir
 
Spd
km/h
Gust
km/h
Spd
kts
Gust
kts
29/11:30pm 11.9 11.0 10.5 91 0.7 WSW 6 7 3 4 1020.4 - 0.0
29/11:00pm 12.3 11.4 10.7 90 0.8 WSW 6 7 3 4 1020.4 - 0.0
29/10:30pm 12.7 11.8 10.8 88 1.0 WSW 6 7 3 4 1020.7 - 0.0
29/10:00pm 14.0 12.9 11.9 87 1.1 WSW 9 11 5 6 1020.8 - 0.0
29/09:30pm 13.9 12.8 11.8 87 1.1 WSW 9 11 5 6 1020.7 - 0.0
29/09:00pm 13.4 12.6 11.8 90 0.9 NW 7 9 4 5 1020.7 1020.7 0.0
29/08:30pm 13.3 12.6 11.4 88 1.0 NW 6 6 3 3 1020.4 - 0.0
29/08:00pm 13.5 13.9 11.4 87 1.1 CALM 0 0 0 0 1020.3 - 0.0
29/07:30pm 14.1 13.3 11.8 86 1.2 NW 7 11 4 6 1020.2 - 0.0
29/07:00pm 14.7 15.2 11.5 81 1.7 CALM 0 0 0 0 1020.0 - 0.0
29/06:30pm 15.2 13.9 11.4 78 2.0 ESE 9 11 5 6 1019.7 - 0.0
29/06:00pm 16.0 14.0 11.4 74 2.5 E 13 17 7 9 1019.6 1019.6 0.0
29/05:30pm 17.5 14.6 11.1 66 3.5 ESE 17 20 9 11 1019.3 - 0.0

Other Formats:

Comma delimited format used in spreadsheet applications
http://www.bom.gov.au/fwo/IDQ60801/IDQ60801.94567.axf

JavaScript Object Notation format (JSON) in row-major order
http://www.bom.gov.au/fwo/IDQ60801/IDQ60801.94567.json